<?xml version="1.0" encoding="UTF-8" standalone="no" ?>
<gpx xmlns="http://www.topografix.com/GPX/1/1" xmlns:xsi="http://www.w3.org/2001/XMLSchema-instance" xsi:schemaLocation="http://www.topografix.com/GPX/1/1 http://www.topografix.com/GPX/1/1/gpx.xsd" version="1.1" creator="VisuGPX - https://www.visugpx.com">
  <metadata>
    <name>Montagne de Lure 9.8 km</name>
  </metadata>
  <wpt lat="44.11335" lon="5.88565">
    <ele>1418</ele>
    <name><![CDATA[Pas de Jean Richaud]]></name>
  </wpt>
  <wpt lat="44.11247" lon="5.86345">
    <ele>1499.3</ele>
    <name><![CDATA[Pas de la Croix]]></name>
  </wpt>
  <wpt lat="44.11512" lon="5.83333">
    <ele>1584.1</ele>
    <name><![CDATA[Pas de la Graille]]></name>
  </wpt>
  <trk>
    <name><![CDATA[Montagne de Lure 16 km]]></name>
    <trkseg>
      <trkpt lat="44.12535" lon="5.87045">
        <ele>912</ele>
        <time>2020-06-27T13:49:45Z</time>
      </trkpt>
      <trkpt lat="44.12535" lon="5.87045">
        <ele>912</ele>
        <time>2020-06-27T13:49:45Z</time>
      </trkpt>
      <trkpt lat="44.12535" lon="5.87045">
        <ele>912</ele>
        <time>2020-06-27T13:49:45Z</time>
      </trkpt>
      <trkpt lat="44.12535" lon="5.87045">
        <ele>912</ele>
        <time>2020-06-27T13:49:45Z</time>
      </trkpt>
      <trkpt lat="44.12535" lon="5.87045">
        <ele>912</ele>
        <time>2020-06-27T13:49:45Z</time>
      </trkpt>
      <trkpt lat="44.12537" lon="5.87062">
        <ele>912</ele>
        <time>2020-06-27T13:49:45Z</time>
      </trkpt>
      <trkpt lat="44.1251" lon="5.87301">
        <ele>909</ele>
        <time>2020-06-27T13:49:45Z</time>
      </trkpt>
      <trkpt lat="44.1252" lon="5.87373">
        <ele>906</ele>
        <time>2020-06-27T13:49:45Z</time>
      </trkpt>
      <trkpt lat="44.12509" lon="5.87448">
        <ele>903</ele>
        <time>2020-06-27T13:49:45Z</time>
      </trkpt>
      <trkpt lat="44.12502" lon="5.87475">
        <ele>902</ele>
        <time>2020-06-27T13:49:45Z</time>
      </trkpt>
      <trkpt lat="44.12487" lon="5.87495">
        <ele>901</ele>
        <time>2020-06-27T13:49:45Z</time>
      </trkpt>
      <trkpt lat="44.12487" lon="5.87495">
        <ele>897</ele>
        <time>2020-06-27T13:49:45Z</time>
      </trkpt>
      <trkpt lat="44.12471" lon="5.87609">
        <ele>896</ele>
        <time>2020-06-27T13:49:45Z</time>
      </trkpt>
      <trkpt lat="44.12454" lon="5.87621">
        <ele>895</ele>
        <time>2020-06-27T13:49:45Z</time>
      </trkpt>
      <trkpt lat="44.12437" lon="5.87616">
        <ele>895</ele>
        <time>2020-06-27T13:49:45Z</time>
      </trkpt>
      <trkpt lat="44.12263" lon="5.87488">
        <ele>906</ele>
        <time>2020-06-27T13:49:45Z</time>
      </trkpt>
      <trkpt lat="44.12242" lon="5.87461">
        <ele>913</ele>
        <time>2020-06-27T13:49:45Z</time>
      </trkpt>
      <trkpt lat="44.12237" lon="5.87448">
        <ele>918</ele>
        <time>2020-06-27T13:49:45Z</time>
      </trkpt>
      <trkpt lat="44.12236" lon="5.87434">
        <ele>922</ele>
        <time>2020-06-27T13:49:45Z</time>
      </trkpt>
      <trkpt lat="44.12245" lon="5.87405">
        <ele>925</ele>
        <time>2020-06-27T13:49:45Z</time>
      </trkpt>
      <trkpt lat="44.12256" lon="5.87389">
        <ele>928</ele>
        <time>2020-06-27T13:49:45Z</time>
      </trkpt>
      <trkpt lat="44.1227" lon="5.8738">
        <ele>931</ele>
        <time>2020-06-27T13:49:45Z</time>
      </trkpt>
      <trkpt lat="44.12275" lon="5.87373">
        <ele>933</ele>
        <time>2020-06-27T13:49:45Z</time>
      </trkpt>
      <trkpt lat="44.12274" lon="5.87362">
        <ele>935</ele>
        <time>2020-06-27T13:49:45Z</time>
      </trkpt>
      <trkpt lat="44.12262" lon="5.87369">
        <ele>937</ele>
        <time>2020-06-27T13:49:45Z</time>
      </trkpt>
      <trkpt lat="44.12248" lon="5.87382">
        <ele>938</ele>
        <time>2020-06-27T13:49:45Z</time>
      </trkpt>
      <trkpt lat="44.12237" lon="5.87387">
        <ele>939</ele>
        <time>2020-06-27T13:49:45Z</time>
      </trkpt>
      <trkpt lat="44.12237" lon="5.87387">
        <ele>946</ele>
        <time>2020-06-27T13:49:45Z</time>
      </trkpt>
      <trkpt lat="44.12197" lon="5.87377">
        <ele>947</ele>
        <time>2020-06-27T13:49:45Z</time>
      </trkpt>
      <trkpt lat="44.12188" lon="5.87377">
        <ele>949</ele>
        <time>2020-06-27T13:49:45Z</time>
      </trkpt>
      <trkpt lat="44.12179" lon="5.87386">
        <ele>949</ele>
        <time>2020-06-27T13:49:45Z</time>
      </trkpt>
      <trkpt lat="44.12172" lon="5.87389">
        <ele>950</ele>
        <time>2020-06-27T13:49:45Z</time>
      </trkpt>
      <trkpt lat="44.12165" lon="5.87384">
        <ele>951</ele>
        <time>2020-06-27T13:49:45Z</time>
      </trkpt>
      <trkpt lat="44.12162" lon="5.87373">
        <ele>952</ele>
        <time>2020-06-27T13:49:45Z</time>
      </trkpt>
      <trkpt lat="44.12165" lon="5.8736">
        <ele>953</ele>
        <time>2020-06-27T13:49:45Z</time>
      </trkpt>
      <trkpt lat="44.12172" lon="5.87347">
        <ele>955</ele>
        <time>2020-06-27T13:49:45Z</time>
      </trkpt>
      <trkpt lat="44.12182" lon="5.87342">
        <ele>956</ele>
        <time>2020-06-27T13:49:45Z</time>
      </trkpt>
      <trkpt lat="44.12201" lon="5.87342">
        <ele>957</ele>
        <time>2020-06-27T13:49:45Z</time>
      </trkpt>
      <trkpt lat="44.1221" lon="5.87338">
        <ele>958</ele>
        <time>2020-06-27T13:49:45Z</time>
      </trkpt>
      <trkpt lat="44.12213" lon="5.87329">
        <ele>958</ele>
        <time>2020-06-27T13:49:45Z</time>
      </trkpt>
      <trkpt lat="44.12214" lon="5.87319">
        <ele>959</ele>
        <time>2020-06-27T13:49:45Z</time>
      </trkpt>
      <trkpt lat="44.12207" lon="5.87295">
        <ele>961</ele>
        <time>2020-06-27T13:49:45Z</time>
      </trkpt>
      <trkpt lat="44.12163" lon="5.87185">
        <ele>965</ele>
        <time>2020-06-27T13:49:45Z</time>
      </trkpt>
      <trkpt lat="44.1216" lon="5.87145">
        <ele>969</ele>
        <time>2020-06-27T13:49:45Z</time>
      </trkpt>
      <trkpt lat="44.12167" lon="5.87076">
        <ele>973</ele>
        <time>2020-06-27T13:49:45Z</time>
      </trkpt>
      <trkpt lat="44.12163" lon="5.87066">
        <ele>976</ele>
        <time>2020-06-27T13:49:45Z</time>
      </trkpt>
      <trkpt lat="44.12155" lon="5.87066">
        <ele>978</ele>
        <time>2020-06-27T13:49:45Z</time>
      </trkpt>
      <trkpt lat="44.1215" lon="5.87077">
        <ele>980</ele>
        <time>2020-06-27T13:49:45Z</time>
      </trkpt>
      <trkpt lat="44.12149" lon="5.87093">
        <ele>982</ele>
        <time>2020-06-27T13:49:45Z</time>
      </trkpt>
      <trkpt lat="44.12144" lon="5.87107">
        <ele>983</ele>
        <time>2020-06-27T13:49:45Z</time>
      </trkpt>
      <trkpt lat="44.1208" lon="5.872">
        <ele>989</ele>
        <time>2020-06-27T13:49:45Z</time>
      </trkpt>
      <trkpt lat="44.12061" lon="5.87249">
        <ele>994</ele>
        <time>2020-06-27T13:49:45Z</time>
      </trkpt>
      <trkpt lat="44.12054" lon="5.87253">
        <ele>997</ele>
        <time>2020-06-27T13:49:45Z</time>
      </trkpt>
      <trkpt lat="44.12047" lon="5.87251">
        <ele>1000</ele>
        <time>2020-06-27T13:49:45Z</time>
      </trkpt>
      <trkpt lat="44.12054" lon="5.87196">
        <ele>1003</ele>
        <time>2020-06-27T13:49:45Z</time>
      </trkpt>
      <trkpt lat="44.12055" lon="5.87104">
        <ele>1008</ele>
        <time>2020-06-27T13:49:45Z</time>
      </trkpt>
      <trkpt lat="44.12053" lon="5.87094">
        <ele>1012</ele>
        <time>2020-06-27T13:49:45Z</time>
      </trkpt>
      <trkpt lat="44.12048" lon="5.87086">
        <ele>1014</ele>
        <time>2020-06-27T13:49:45Z</time>
      </trkpt>
      <trkpt lat="44.12039" lon="5.87088">
        <ele>1017</ele>
        <time>2020-06-27T13:49:45Z</time>
      </trkpt>
      <trkpt lat="44.12032" lon="5.87094">
        <ele>1020</ele>
        <time>2020-06-27T13:49:45Z</time>
      </trkpt>
      <trkpt lat="44.11997" lon="5.87138">
        <ele>1025</ele>
        <time>2020-06-27T13:49:45Z</time>
      </trkpt>
      <trkpt lat="44.11956" lon="5.87176">
        <ele>1033</ele>
        <time>2020-06-27T13:49:45Z</time>
      </trkpt>
      <trkpt lat="44.11944" lon="5.87196">
        <ele>1040</ele>
        <time>2020-06-27T13:49:45Z</time>
      </trkpt>
      <trkpt lat="44.11938" lon="5.872">
        <ele>1045</ele>
        <time>2020-06-27T13:49:45Z</time>
      </trkpt>
      <trkpt lat="44.11934" lon="5.87185">
        <ele>1050</ele>
        <time>2020-06-27T13:49:45Z</time>
      </trkpt>
      <trkpt lat="44.11926" lon="5.87189">
        <ele>1054</ele>
        <time>2020-06-27T13:49:45Z</time>
      </trkpt>
      <trkpt lat="44.11921" lon="5.87198">
        <ele>1057</ele>
        <time>2020-06-27T13:49:45Z</time>
      </trkpt>
      <trkpt lat="44.11912" lon="5.87202">
        <ele>1061</ele>
        <time>2020-06-27T13:49:45Z</time>
      </trkpt>
      <trkpt lat="44.11906" lon="5.87197">
        <ele>1064</ele>
        <time>2020-06-27T13:49:45Z</time>
      </trkpt>
      <trkpt lat="44.11893" lon="5.87182">
        <ele>1068</ele>
        <time>2020-06-27T13:49:45Z</time>
      </trkpt>
      <trkpt lat="44.11885" lon="5.87187">
        <ele>1072</ele>
        <time>2020-06-27T13:49:45Z</time>
      </trkpt>
      <trkpt lat="44.11878" lon="5.8718">
        <ele>1076</ele>
        <time>2020-06-27T13:49:45Z</time>
      </trkpt>
      <trkpt lat="44.11873" lon="5.8717">
        <ele>1079</ele>
        <time>2020-06-27T13:49:45Z</time>
      </trkpt>
      <trkpt lat="44.11848" lon="5.87238">
        <ele>1085</ele>
        <time>2020-06-27T13:49:45Z</time>
      </trkpt>
      <trkpt lat="44.11838" lon="5.87229">
        <ele>1091</ele>
        <time>2020-06-27T13:49:45Z</time>
      </trkpt>
      <trkpt lat="44.11827" lon="5.87243">
        <ele>1097</ele>
        <time>2020-06-27T13:49:45Z</time>
      </trkpt>
      <trkpt lat="44.1182" lon="5.87245">
        <ele>1102</ele>
        <time>2020-06-27T13:49:45Z</time>
      </trkpt>
      <trkpt lat="44.1182" lon="5.87233">
        <ele>1106</ele>
        <time>2020-06-27T13:49:45Z</time>
      </trkpt>
      <trkpt lat="44.1181" lon="5.87238">
        <ele>1110</ele>
        <time>2020-06-27T13:49:45Z</time>
      </trkpt>
      <trkpt lat="44.118" lon="5.87254">
        <ele>1115</ele>
        <time>2020-06-27T13:49:45Z</time>
      </trkpt>
      <trkpt lat="44.11793" lon="5.87256">
        <ele>1119</ele>
        <time>2020-06-27T13:49:45Z</time>
      </trkpt>
      <trkpt lat="44.11788" lon="5.87265">
        <ele>1123</ele>
        <time>2020-06-27T13:49:45Z</time>
      </trkpt>
      <trkpt lat="44.11786" lon="5.87288">
        <ele>1127</ele>
        <time>2020-06-27T13:49:45Z</time>
      </trkpt>
      <trkpt lat="44.1178" lon="5.87297">
        <ele>1131</ele>
        <time>2020-06-27T13:49:45Z</time>
      </trkpt>
      <trkpt lat="44.11776" lon="5.87309">
        <ele>1135</ele>
        <time>2020-06-27T13:49:45Z</time>
      </trkpt>
      <trkpt lat="44.11774" lon="5.87335">
        <ele>1139</ele>
        <time>2020-06-27T13:49:45Z</time>
      </trkpt>
      <trkpt lat="44.11774" lon="5.87335">
        <ele>1166</ele>
        <time>2020-06-27T13:49:45Z</time>
      </trkpt>
      <trkpt lat="44.11772" lon="5.87378">
        <ele>1166</ele>
        <time>2020-06-27T13:49:45Z</time>
      </trkpt>
      <trkpt lat="44.11763" lon="5.87399">
        <ele>1167</ele>
        <time>2020-06-27T13:49:45Z</time>
      </trkpt>
      <trkpt lat="44.11738" lon="5.87428">
        <ele>1170</ele>
        <time>2020-06-27T13:49:45Z</time>
      </trkpt>
      <trkpt lat="44.11733" lon="5.87437">
        <ele>1173</ele>
        <time>2020-06-27T13:49:45Z</time>
      </trkpt>
      <trkpt lat="44.11728" lon="5.87443">
        <ele>1176</ele>
        <time>2020-06-27T13:49:45Z</time>
      </trkpt>
      <trkpt lat="44.1172" lon="5.87462">
        <ele>1179</ele>
        <time>2020-06-27T13:49:45Z</time>
      </trkpt>
      <trkpt lat="44.11713" lon="5.87469">
        <ele>1183</ele>
        <time>2020-06-27T13:49:45Z</time>
      </trkpt>
      <trkpt lat="44.11713" lon="5.87457">
        <ele>1185</ele>
        <time>2020-06-27T13:49:45Z</time>
      </trkpt>
      <trkpt lat="44.1171" lon="5.87447">
        <ele>1188</ele>
        <time>2020-06-27T13:49:45Z</time>
      </trkpt>
      <trkpt lat="44.117" lon="5.87467">
        <ele>1191</ele>
        <time>2020-06-27T13:49:45Z</time>
      </trkpt>
      <trkpt lat="44.11699" lon="5.87477">
        <ele>1194</ele>
        <time>2020-06-27T13:49:45Z</time>
      </trkpt>
      <trkpt lat="44.11693" lon="5.8749">
        <ele>1197</ele>
        <time>2020-06-27T13:49:45Z</time>
      </trkpt>
      <trkpt lat="44.11687" lon="5.87497">
        <ele>1200</ele>
        <time>2020-06-27T13:49:45Z</time>
      </trkpt>
      <trkpt lat="44.11673" lon="5.87464">
        <ele>1204</ele>
        <time>2020-06-27T13:49:45Z</time>
      </trkpt>
      <trkpt lat="44.11669" lon="5.87472">
        <ele>1208</ele>
        <time>2020-06-27T13:49:45Z</time>
      </trkpt>
      <trkpt lat="44.11666" lon="5.87482">
        <ele>1211</ele>
        <time>2020-06-27T13:49:45Z</time>
      </trkpt>
      <trkpt lat="44.11666" lon="5.87482">
        <ele>1233</ele>
        <time>2020-06-27T13:49:45Z</time>
      </trkpt>
      <trkpt lat="44.1166" lon="5.87503">
        <ele>1234</ele>
        <time>2020-06-27T13:49:45Z</time>
      </trkpt>
      <trkpt lat="44.11654" lon="5.87512">
        <ele>1235</ele>
        <time>2020-06-27T13:49:45Z</time>
      </trkpt>
      <trkpt lat="44.11652" lon="5.87522">
        <ele>1236</ele>
        <time>2020-06-27T13:49:45Z</time>
      </trkpt>
      <trkpt lat="44.11641" lon="5.87555">
        <ele>1238</ele>
        <time>2020-06-27T13:49:45Z</time>
      </trkpt>
      <trkpt lat="44.11634" lon="5.8758">
        <ele>1240</ele>
        <time>2020-06-27T13:49:45Z</time>
      </trkpt>
      <trkpt lat="44.11582" lon="5.87711">
        <ele>1250</ele>
        <time>2020-06-27T13:49:45Z</time>
      </trkpt>
      <trkpt lat="44.11574" lon="5.87717">
        <ele>1258</ele>
        <time>2020-06-27T13:49:45Z</time>
      </trkpt>
      <trkpt lat="44.1157" lon="5.87727">
        <ele>1263</ele>
        <time>2020-06-27T13:49:45Z</time>
      </trkpt>
      <trkpt lat="44.11554" lon="5.87742">
        <ele>1268</ele>
        <time>2020-06-27T13:49:45Z</time>
      </trkpt>
      <trkpt lat="44.11531" lon="5.87791">
        <ele>1275</ele>
        <time>2020-06-27T13:49:45Z</time>
      </trkpt>
      <trkpt lat="44.11526" lon="5.87799">
        <ele>1281</ele>
        <time>2020-06-27T13:49:45Z</time>
      </trkpt>
      <trkpt lat="44.11521" lon="5.87809">
        <ele>1286</ele>
        <time>2020-06-27T13:49:45Z</time>
      </trkpt>
      <trkpt lat="44.11506" lon="5.87903">
        <ele>1293</ele>
        <time>2020-06-27T13:49:45Z</time>
      </trkpt>
      <trkpt lat="44.11496" lon="5.87934">
        <ele>1299</ele>
        <time>2020-06-27T13:49:45Z</time>
      </trkpt>
      <trkpt lat="44.11489" lon="5.87981">
        <ele>1306</ele>
        <time>2020-06-27T13:49:45Z</time>
      </trkpt>
      <trkpt lat="44.11489" lon="5.88021">
        <ele>1311</ele>
        <time>2020-06-27T13:49:45Z</time>
      </trkpt>
      <trkpt lat="44.11485" lon="5.88055">
        <ele>1316</ele>
        <time>2020-06-27T13:49:45Z</time>
      </trkpt>
      <trkpt lat="44.11483" lon="5.88078">
        <ele>1320</ele>
        <time>2020-06-27T13:49:45Z</time>
      </trkpt>
      <trkpt lat="44.11482" lon="5.88088">
        <ele>1323</ele>
        <time>2020-06-27T13:49:45Z</time>
      </trkpt>
      <trkpt lat="44.1148" lon="5.88112">
        <ele>1326</ele>
        <time>2020-06-27T13:49:45Z</time>
      </trkpt>
      <trkpt lat="44.11477" lon="5.88123">
        <ele>1328</ele>
        <time>2020-06-27T13:49:45Z</time>
      </trkpt>
      <trkpt lat="44.11475" lon="5.88145">
        <ele>1330</ele>
        <time>2020-06-27T13:49:45Z</time>
      </trkpt>
      <trkpt lat="44.11473" lon="5.88155">
        <ele>1333</ele>
        <time>2020-06-27T13:49:45Z</time>
      </trkpt>
      <trkpt lat="44.11468" lon="5.88165">
        <ele>1335</ele>
        <time>2020-06-27T13:49:45Z</time>
      </trkpt>
      <trkpt lat="44.11466" lon="5.88176">
        <ele>1336</ele>
        <time>2020-06-27T13:49:45Z</time>
      </trkpt>
      <trkpt lat="44.1146" lon="5.88166">
        <ele>1339</ele>
        <time>2020-06-27T13:49:45Z</time>
      </trkpt>
      <trkpt lat="44.11451" lon="5.88169">
        <ele>1342</ele>
        <time>2020-06-27T13:49:45Z</time>
      </trkpt>
      <trkpt lat="44.11447" lon="5.88178">
        <ele>1345</ele>
        <time>2020-06-27T13:49:45Z</time>
      </trkpt>
      <trkpt lat="44.11422" lon="5.88204">
        <ele>1351</ele>
        <time>2020-06-27T13:49:45Z</time>
      </trkpt>
      <trkpt lat="44.1142" lon="5.88216">
        <ele>1355</ele>
        <time>2020-06-27T13:49:45Z</time>
      </trkpt>
      <trkpt lat="44.11414" lon="5.88225">
        <ele>1360</ele>
        <time>2020-06-27T13:49:45Z</time>
      </trkpt>
      <trkpt lat="44.11407" lon="5.88246">
        <ele>1364</ele>
        <time>2020-06-27T13:49:45Z</time>
      </trkpt>
      <trkpt lat="44.11399" lon="5.88252">
        <ele>1368</ele>
        <time>2020-06-27T13:49:45Z</time>
      </trkpt>
      <trkpt lat="44.11393" lon="5.88261">
        <ele>1372</ele>
        <time>2020-06-27T13:49:45Z</time>
      </trkpt>
      <trkpt lat="44.11377" lon="5.88314">
        <ele>1378</ele>
        <time>2020-06-27T13:49:45Z</time>
      </trkpt>
      <trkpt lat="44.11371" lon="5.88322">
        <ele>1383</ele>
        <time>2020-06-27T13:49:45Z</time>
      </trkpt>
      <trkpt lat="44.11369" lon="5.88334">
        <ele>1387</ele>
        <time>2020-06-27T13:49:45Z</time>
      </trkpt>
      <trkpt lat="44.11347" lon="5.88409">
        <ele>1395</ele>
        <time>2020-06-27T13:49:45Z</time>
      </trkpt>
      <trkpt lat="44.11342" lon="5.88432">
        <ele>1401</ele>
        <time>2020-06-27T13:49:45Z</time>
      </trkpt>
      <trkpt lat="44.11339" lon="5.88442">
        <ele>1406</ele>
        <time>2020-06-27T13:49:45Z</time>
      </trkpt>
      <trkpt lat="44.11331" lon="5.88442">
        <ele>1410</ele>
        <time>2020-06-27T13:49:45Z</time>
      </trkpt>
      <trkpt lat="44.11324" lon="5.88433">
        <ele>1413</ele>
        <time>2020-06-27T13:49:45Z</time>
      </trkpt>
      <trkpt lat="44.11314" lon="5.88429">
        <ele>1416</ele>
        <time>2020-06-27T13:49:45Z</time>
      </trkpt>
      <trkpt lat="44.11306" lon="5.88381">
        <ele>1419</ele>
        <time>2020-06-27T13:49:45Z</time>
      </trkpt>
      <trkpt lat="44.11306" lon="5.88337">
        <ele>1422</ele>
        <time>2020-06-27T13:49:45Z</time>
      </trkpt>
      <trkpt lat="44.11311" lon="5.88279">
        <ele>1426</ele>
        <time>2020-06-27T13:49:45Z</time>
      </trkpt>
      <trkpt lat="44.113" lon="5.88147">
        <ele>1435</ele>
        <time>2020-06-27T13:49:45Z</time>
      </trkpt>
      <trkpt lat="44.11267" lon="5.88069">
        <ele>1443</ele>
        <time>2020-06-27T13:49:45Z</time>
      </trkpt>
      <trkpt lat="44.11235" lon="5.87894">
        <ele>1460</ele>
        <time>2020-06-27T13:49:45Z</time>
      </trkpt>
      <trkpt lat="44.11228" lon="5.87827">
        <ele>1472</ele>
        <time>2020-06-27T13:49:45Z</time>
      </trkpt>
      <trkpt lat="44.11224" lon="5.87816">
        <ele>1479</ele>
        <time>2020-06-27T13:49:45Z</time>
      </trkpt>
      <trkpt lat="44.11212" lon="5.87716">
        <ele>1489</ele>
        <time>2020-06-27T13:49:45Z</time>
      </trkpt>
      <trkpt lat="44.1119" lon="5.87241">
        <ele>1509</ele>
        <time>2020-06-27T13:49:45Z</time>
      </trkpt>
      <trkpt lat="44.11214" lon="5.8707">
        <ele>1521</ele>
        <time>2020-06-27T13:49:45Z</time>
      </trkpt>
      <trkpt lat="44.11214" lon="5.8707">
        <ele>1539</ele>
        <time>2020-06-27T13:49:45Z</time>
      </trkpt>
      <trkpt lat="44.1122" lon="5.87027">
        <ele>1540</ele>
        <time>2020-06-27T13:49:45Z</time>
      </trkpt>
      <trkpt lat="44.1122" lon="5.87014">
        <ele>1540</ele>
        <time>2020-06-27T13:49:45Z</time>
      </trkpt>
      <trkpt lat="44.11214" lon="5.86984">
        <ele>1540</ele>
        <time>2020-06-27T13:49:45Z</time>
      </trkpt>
      <trkpt lat="44.11205" lon="5.86853">
        <ele>1540</ele>
        <time>2020-06-27T13:49:45Z</time>
      </trkpt>
      <trkpt lat="44.11167" lon="5.86725">
        <ele>1538</ele>
        <time>2020-06-27T13:49:45Z</time>
      </trkpt>
      <trkpt lat="44.11157" lon="5.86699">
        <ele>1536</ele>
        <time>2020-06-27T13:49:45Z</time>
      </trkpt>
      <trkpt lat="44.11157" lon="5.86684">
        <ele>1534</ele>
        <time>2020-06-27T13:49:45Z</time>
      </trkpt>
      <trkpt lat="44.11201" lon="5.86628">
        <ele>1532</ele>
        <time>2020-06-27T13:49:45Z</time>
      </trkpt>
      <trkpt lat="44.11218" lon="5.86616">
        <ele>1530</ele>
        <time>2020-06-27T13:49:45Z</time>
      </trkpt>
      <trkpt lat="44.1122" lon="5.86605">
        <ele>1528</ele>
        <time>2020-06-27T13:49:45Z</time>
      </trkpt>
      <trkpt lat="44.11216" lon="5.86565">
        <ele>1526</ele>
        <time>2020-06-27T13:49:45Z</time>
      </trkpt>
      <trkpt lat="44.11217" lon="5.86543">
        <ele>1524</ele>
        <time>2020-06-27T13:49:45Z</time>
      </trkpt>
      <trkpt lat="44.1122" lon="5.86533">
        <ele>1522</ele>
        <time>2020-06-27T13:49:45Z</time>
      </trkpt>
      <trkpt lat="44.11218" lon="5.86523">
        <ele>1521</ele>
        <time>2020-06-27T13:49:45Z</time>
      </trkpt>
      <trkpt lat="44.11213" lon="5.86514">
        <ele>1519</ele>
        <time>2020-06-27T13:49:45Z</time>
      </trkpt>
      <trkpt lat="44.1121" lon="5.86504">
        <ele>1518</ele>
        <time>2020-06-27T13:49:45Z</time>
      </trkpt>
      <trkpt lat="44.11214" lon="5.86481">
        <ele>1516</ele>
        <time>2020-06-27T13:49:45Z</time>
      </trkpt>
      <trkpt lat="44.11226" lon="5.86457">
        <ele>1514</ele>
        <time>2020-06-27T13:49:45Z</time>
      </trkpt>
      <trkpt lat="44.11244" lon="5.86435">
        <ele>1512</ele>
        <time>2020-06-27T13:49:45Z</time>
      </trkpt>
      <trkpt lat="44.11256" lon="5.86406">
        <ele>1510</ele>
        <time>2020-06-27T13:49:45Z</time>
      </trkpt>
      <trkpt lat="44.1125" lon="5.8633">
        <ele>1508</ele>
        <time>2020-06-27T13:49:45Z</time>
      </trkpt>
      <trkpt lat="44.11239" lon="5.86271">
        <ele>1508</ele>
        <time>2020-06-27T13:49:45Z</time>
      </trkpt>
      <trkpt lat="44.11227" lon="5.86237">
        <ele>1509</ele>
        <time>2020-06-27T13:49:45Z</time>
      </trkpt>
      <trkpt lat="44.11209" lon="5.86142">
        <ele>1514</ele>
        <time>2020-06-27T13:49:45Z</time>
      </trkpt>
      <trkpt lat="44.112" lon="5.8612">
        <ele>1518</ele>
        <time>2020-06-27T13:49:45Z</time>
      </trkpt>
      <trkpt lat="44.11197" lon="5.86102">
        <ele>1521</ele>
        <time>2020-06-27T13:49:45Z</time>
      </trkpt>
      <trkpt lat="44.11197" lon="5.86102">
        <ele>1535</ele>
        <time>2020-06-27T13:49:45Z</time>
      </trkpt>
      <trkpt lat="44.11177" lon="5.86021">
        <ele>1538</ele>
        <time>2020-06-27T13:49:45Z</time>
      </trkpt>
      <trkpt lat="44.11203" lon="5.85623">
        <ele>1557</ele>
        <time>2020-06-27T13:49:45Z</time>
      </trkpt>
      <trkpt lat="44.11214" lon="5.85585">
        <ele>1564</ele>
        <time>2020-06-27T13:49:45Z</time>
      </trkpt>
      <trkpt lat="44.11234" lon="5.85524">
        <ele>1566</ele>
        <time>2020-06-27T13:49:45Z</time>
      </trkpt>
      <trkpt lat="44.11269" lon="5.85473">
        <ele>1566</ele>
        <time>2020-06-27T13:49:45Z</time>
      </trkpt>
      <trkpt lat="44.11289" lon="5.85432">
        <ele>1567</ele>
        <time>2020-06-27T13:49:45Z</time>
      </trkpt>
      <trkpt lat="44.11313" lon="5.85336">
        <ele>1569</ele>
        <time>2020-06-27T13:49:45Z</time>
      </trkpt>
      <trkpt lat="44.11322" lon="5.85234">
        <ele>1572</ele>
        <time>2020-06-27T13:49:45Z</time>
      </trkpt>
      <trkpt lat="44.11337" lon="5.85195">
        <ele>1575</ele>
        <time>2020-06-27T13:49:45Z</time>
      </trkpt>
      <trkpt lat="44.11343" lon="5.85134">
        <ele>1577</ele>
        <time>2020-06-27T13:49:45Z</time>
      </trkpt>
      <trkpt lat="44.11342" lon="5.85121">
        <ele>1578</ele>
        <time>2020-06-27T13:49:45Z</time>
      </trkpt>
      <trkpt lat="44.11352" lon="5.84977">
        <ele>1580</ele>
        <time>2020-06-27T13:49:45Z</time>
      </trkpt>
      <trkpt lat="44.11345" lon="5.84856">
        <ele>1581</ele>
        <time>2020-06-27T13:49:45Z</time>
      </trkpt>
      <trkpt lat="44.11338" lon="5.84821">
        <ele>1584</ele>
        <time>2020-06-27T13:49:45Z</time>
      </trkpt>
      <trkpt lat="44.11313" lon="5.84582">
        <ele>1596</ele>
        <time>2020-06-27T13:49:45Z</time>
      </trkpt>
      <trkpt lat="44.11345" lon="5.84334">
        <ele>1611</ele>
        <time>2020-06-27T13:49:45Z</time>
      </trkpt>
      <trkpt lat="44.11345" lon="5.84334">
        <ele>1632</ele>
        <time>2020-06-27T13:49:45Z</time>
      </trkpt>
      <trkpt lat="44.11358" lon="5.84258">
        <ele>1639</ele>
        <time>2020-06-27T13:49:45Z</time>
      </trkpt>
      <trkpt lat="44.11365" lon="5.8424">
        <ele>1639</ele>
        <time>2020-06-27T13:49:45Z</time>
      </trkpt>
      <trkpt lat="44.11368" lon="5.84221">
        <ele>1640</ele>
        <time>2020-06-27T13:49:45Z</time>
      </trkpt>
      <trkpt lat="44.11367" lon="5.84185">
        <ele>1641</ele>
        <time>2020-06-27T13:49:45Z</time>
      </trkpt>
      <trkpt lat="44.11371" lon="5.84163">
        <ele>1642</ele>
        <time>2020-06-27T13:49:45Z</time>
      </trkpt>
      <trkpt lat="44.11375" lon="5.84128">
        <ele>1643</ele>
        <time>2020-06-27T13:49:45Z</time>
      </trkpt>
      <trkpt lat="44.11404" lon="5.84031">
        <ele>1645</ele>
        <time>2020-06-27T13:49:45Z</time>
      </trkpt>
      <trkpt lat="44.114" lon="5.83953">
        <ele>1645</ele>
        <time>2020-06-27T13:49:45Z</time>
      </trkpt>
      <trkpt lat="44.11406" lon="5.83902">
        <ele>1645</ele>
        <time>2020-06-27T13:49:45Z</time>
      </trkpt>
      <trkpt lat="44.11404" lon="5.83866">
        <ele>1644</ele>
        <time>2020-06-27T13:49:45Z</time>
      </trkpt>
      <trkpt lat="44.11418" lon="5.83781">
        <ele>1641</ele>
        <time>2020-06-27T13:49:45Z</time>
      </trkpt>
      <trkpt lat="44.11422" lon="5.8377">
        <ele>1639</ele>
        <time>2020-06-27T13:49:45Z</time>
      </trkpt>
      <trkpt lat="44.11441" lon="5.83678">
        <ele>1635</ele>
        <time>2020-06-27T13:49:45Z</time>
      </trkpt>
      <trkpt lat="44.11447" lon="5.83663">
        <ele>1632</ele>
        <time>2020-06-27T13:49:45Z</time>
      </trkpt>
      <trkpt lat="44.1145" lon="5.83649">
        <ele>1630</ele>
        <time>2020-06-27T13:49:45Z</time>
      </trkpt>
      <trkpt lat="44.11459" lon="5.8358">
        <ele>1626</ele>
        <time>2020-06-27T13:49:45Z</time>
      </trkpt>
      <trkpt lat="44.11463" lon="5.83553">
        <ele>1623</ele>
        <time>2020-06-27T13:49:45Z</time>
      </trkpt>
      <trkpt lat="44.11464" lon="5.83529">
        <ele>1620</ele>
        <time>2020-06-27T13:49:45Z</time>
      </trkpt>
      <trkpt lat="44.11466" lon="5.83519">
        <ele>1617</ele>
        <time>2020-06-27T13:49:45Z</time>
      </trkpt>
      <trkpt lat="44.1149" lon="5.83487">
        <ele>1614</ele>
        <time>2020-06-27T13:49:45Z</time>
      </trkpt>
      <trkpt lat="44.11492" lon="5.83475">
        <ele>1612</ele>
        <time>2020-06-27T13:49:45Z</time>
      </trkpt>
      <trkpt lat="44.1149" lon="5.83453">
        <ele>1610</ele>
        <time>2020-06-27T13:49:45Z</time>
      </trkpt>
      <trkpt lat="44.11493" lon="5.83436">
        <ele>1608</ele>
        <time>2020-06-27T13:49:45Z</time>
      </trkpt>
      <trkpt lat="44.11504" lon="5.83409">
        <ele>1607</ele>
        <time>2020-06-27T13:49:45Z</time>
      </trkpt>
      <trkpt lat="44.11511" lon="5.83376">
        <ele>1606</ele>
        <time>2020-06-27T13:49:45Z</time>
      </trkpt>
      <trkpt lat="44.11512" lon="5.83326">
        <ele>1604</ele>
        <time>2020-06-27T13:49:45Z</time>
      </trkpt>
      <trkpt lat="44.11515" lon="5.83315">
        <ele>1603</ele>
        <time>2020-06-27T13:49:45Z</time>
      </trkpt>
      <trkpt lat="44.11522" lon="5.83319">
        <ele>1602</ele>
        <time>2020-06-27T13:49:45Z</time>
      </trkpt>
      <trkpt lat="44.11533" lon="5.83317">
        <ele>1601</ele>
        <time>2020-06-27T13:49:45Z</time>
      </trkpt>
      <trkpt lat="44.11539" lon="5.83311">
        <ele>1601</ele>
        <time>2020-06-27T13:49:45Z</time>
      </trkpt>
      <trkpt lat="44.11547" lon="5.83295">
        <ele>1599</ele>
        <time>2020-06-27T13:49:45Z</time>
      </trkpt>
      <trkpt lat="44.11548" lon="5.83276">
        <ele>1598</ele>
        <time>2020-06-27T13:49:45Z</time>
      </trkpt>
      <trkpt lat="44.11558" lon="5.83281">
        <ele>1597</ele>
        <time>2020-06-27T13:49:45Z</time>
      </trkpt>
      <trkpt lat="44.11562" lon="5.83292">
        <ele>1595</ele>
        <time>2020-06-27T13:49:45Z</time>
      </trkpt>
      <trkpt lat="44.11564" lon="5.83305">
        <ele>1594</ele>
        <time>2020-06-27T13:49:45Z</time>
      </trkpt>
      <trkpt lat="44.11572" lon="5.83301">
        <ele>1592</ele>
        <time>2020-06-27T13:49:45Z</time>
      </trkpt>
      <trkpt lat="44.11582" lon="5.83291">
        <ele>1589</ele>
        <time>2020-06-27T13:49:45Z</time>
      </trkpt>
      <trkpt lat="44.11585" lon="5.83258">
        <ele>1586</ele>
        <time>2020-06-27T13:49:45Z</time>
      </trkpt>
      <trkpt lat="44.11597" lon="5.83227">
        <ele>1582</ele>
        <time>2020-06-27T13:49:45Z</time>
      </trkpt>
      <trkpt lat="44.11602" lon="5.8322">
        <ele>1578</ele>
        <time>2020-06-27T13:49:45Z</time>
      </trkpt>
      <trkpt lat="44.11625" lon="5.83207">
        <ele>1571</ele>
        <time>2020-06-27T13:49:45Z</time>
      </trkpt>
      <trkpt lat="44.11646" lon="5.83177">
        <ele>1562</ele>
        <time>2020-06-27T13:49:45Z</time>
      </trkpt>
      <trkpt lat="44.11689" lon="5.83161">
        <ele>1551</ele>
        <time>2020-06-27T13:49:45Z</time>
      </trkpt>
      <trkpt lat="44.11696" lon="5.83161">
        <ele>1542</ele>
        <time>2020-06-27T13:49:45Z</time>
      </trkpt>
      <trkpt lat="44.11718" lon="5.83136">
        <ele>1534</ele>
        <time>2020-06-27T13:49:45Z</time>
      </trkpt>
      <trkpt lat="44.11726" lon="5.83131">
        <ele>1527</ele>
        <time>2020-06-27T13:49:45Z</time>
      </trkpt>
      <trkpt lat="44.11732" lon="5.83122">
        <ele>1521</ele>
        <time>2020-06-27T13:49:45Z</time>
      </trkpt>
      <trkpt lat="44.11738" lon="5.83107">
        <ele>1517</ele>
        <time>2020-06-27T13:49:45Z</time>
      </trkpt>
      <trkpt lat="44.11756" lon="5.83081">
        <ele>1512</ele>
        <time>2020-06-27T13:49:45Z</time>
      </trkpt>
      <trkpt lat="44.11762" lon="5.83068">
        <ele>1507</ele>
        <time>2020-06-27T13:49:45Z</time>
      </trkpt>
      <trkpt lat="44.11772" lon="5.83064">
        <ele>1503</ele>
        <time>2020-06-27T13:49:45Z</time>
      </trkpt>
      <trkpt lat="44.11786" lon="5.83049">
        <ele>1499</ele>
        <time>2020-06-27T13:49:45Z</time>
      </trkpt>
      <trkpt lat="44.11794" lon="5.83042">
        <ele>1495</ele>
        <time>2020-06-27T13:49:45Z</time>
      </trkpt>
      <trkpt lat="44.11807" lon="5.8302">
        <ele>1491</ele>
        <time>2020-06-27T13:49:45Z</time>
      </trkpt>
      <trkpt lat="44.11814" lon="5.83016">
        <ele>1487</ele>
        <time>2020-06-27T13:49:45Z</time>
      </trkpt>
      <trkpt lat="44.11828" lon="5.83001">
        <ele>1483</ele>
        <time>2020-06-27T13:49:45Z</time>
      </trkpt>
      <trkpt lat="44.11833" lon="5.8299">
        <ele>1479</ele>
        <time>2020-06-27T13:49:45Z</time>
      </trkpt>
      <trkpt lat="44.11851" lon="5.82969">
        <ele>1475</ele>
        <time>2020-06-27T13:49:45Z</time>
      </trkpt>
      <trkpt lat="44.11866" lon="5.82963">
        <ele>1470</ele>
        <time>2020-06-27T13:49:45Z</time>
      </trkpt>
      <trkpt lat="44.11901" lon="5.82926">
        <ele>1464</ele>
        <time>2020-06-27T13:49:45Z</time>
      </trkpt>
      <trkpt lat="44.11951" lon="5.82893">
        <ele>1455</ele>
        <time>2020-06-27T13:49:45Z</time>
      </trkpt>
      <trkpt lat="44.11966" lon="5.82877">
        <ele>1447</ele>
        <time>2020-06-27T13:49:45Z</time>
      </trkpt>
      <trkpt lat="44.11975" lon="5.82873">
        <ele>1441</ele>
        <time>2020-06-27T13:49:45Z</time>
      </trkpt>
      <trkpt lat="44.11982" lon="5.82862">
        <ele>1437</ele>
        <time>2020-06-27T13:49:45Z</time>
      </trkpt>
      <trkpt lat="44.11989" lon="5.82857">
        <ele>1433</ele>
        <time>2020-06-27T13:49:45Z</time>
      </trkpt>
      <trkpt lat="44.11998" lon="5.82855">
        <ele>1429</ele>
        <time>2020-06-27T13:49:45Z</time>
      </trkpt>
      <trkpt lat="44.12008" lon="5.82849">
        <ele>1426</ele>
        <time>2020-06-27T13:49:45Z</time>
      </trkpt>
      <trkpt lat="44.12014" lon="5.82842">
        <ele>1424</ele>
        <time>2020-06-27T13:49:45Z</time>
      </trkpt>
      <trkpt lat="44.12022" lon="5.8284">
        <ele>1421</ele>
        <time>2020-06-27T13:49:45Z</time>
      </trkpt>
      <trkpt lat="44.12046" lon="5.82824">
        <ele>1419</ele>
        <time>2020-06-27T13:49:45Z</time>
      </trkpt>
      <trkpt lat="44.12054" lon="5.82821">
        <ele>1416</ele>
        <time>2020-06-27T13:49:45Z</time>
      </trkpt>
      <trkpt lat="44.12067" lon="5.82807">
        <ele>1414</ele>
        <time>2020-06-27T13:49:45Z</time>
      </trkpt>
      <trkpt lat="44.121" lon="5.82782">
        <ele>1411</ele>
        <time>2020-06-27T13:49:45Z</time>
      </trkpt>
      <trkpt lat="44.12108" lon="5.8278">
        <ele>1408</ele>
        <time>2020-06-27T13:49:45Z</time>
      </trkpt>
      <trkpt lat="44.12121" lon="5.82767">
        <ele>1405</ele>
        <time>2020-06-27T13:49:45Z</time>
      </trkpt>
      <trkpt lat="44.12133" lon="5.82753">
        <ele>1402</ele>
        <time>2020-06-27T13:49:45Z</time>
      </trkpt>
      <trkpt lat="44.12142" lon="5.82747">
        <ele>1400</ele>
        <time>2020-06-27T13:49:45Z</time>
      </trkpt>
      <trkpt lat="44.12145" lon="5.82736">
        <ele>1398</ele>
        <time>2020-06-27T13:49:45Z</time>
      </trkpt>
      <trkpt lat="44.12151" lon="5.82727">
        <ele>1396</ele>
        <time>2020-06-27T13:49:45Z</time>
      </trkpt>
      <trkpt lat="44.12164" lon="5.82698">
        <ele>1395</ele>
        <time>2020-06-27T13:49:45Z</time>
      </trkpt>
      <trkpt lat="44.12164" lon="5.82698">
        <ele>1389</ele>
        <time>2020-06-27T13:49:45Z</time>
      </trkpt>
      <trkpt lat="44.12171" lon="5.82693">
        <ele>1389</ele>
        <time>2020-06-27T13:49:45Z</time>
      </trkpt>
      <trkpt lat="44.12188" lon="5.82671">
        <ele>1388</ele>
        <time>2020-06-27T13:49:45Z</time>
      </trkpt>
      <trkpt lat="44.12194" lon="5.82656">
        <ele>1387</ele>
        <time>2020-06-27T13:49:45Z</time>
      </trkpt>
      <trkpt lat="44.12202" lon="5.82648">
        <ele>1387</ele>
        <time>2020-06-27T13:49:45Z</time>
      </trkpt>
      <trkpt lat="44.12205" lon="5.82638">
        <ele>1386</ele>
        <time>2020-06-27T13:49:45Z</time>
      </trkpt>
      <trkpt lat="44.12214" lon="5.82625">
        <ele>1386</ele>
        <time>2020-06-27T13:49:45Z</time>
      </trkpt>
      <trkpt lat="44.12218" lon="5.82611">
        <ele>1386</ele>
        <time>2020-06-27T13:49:45Z</time>
      </trkpt>
      <trkpt lat="44.12229" lon="5.82592">
        <ele>1385</ele>
        <time>2020-06-27T13:49:45Z</time>
      </trkpt>
      <trkpt lat="44.12251" lon="5.82569">
        <ele>1384</ele>
        <time>2020-06-27T13:49:45Z</time>
      </trkpt>
      <trkpt lat="44.12325" lon="5.82474">
        <ele>1380</ele>
        <time>2020-06-27T13:49:45Z</time>
      </trkpt>
      <trkpt lat="44.12332" lon="5.82458">
        <ele>1376</ele>
        <time>2020-06-27T13:49:45Z</time>
      </trkpt>
      <trkpt lat="44.12339" lon="5.82406">
        <ele>1371</ele>
        <time>2020-06-27T13:49:45Z</time>
      </trkpt>
      <trkpt lat="44.12343" lon="5.82397">
        <ele>1368</ele>
        <time>2020-06-27T13:49:45Z</time>
      </trkpt>
      <trkpt lat="44.1235" lon="5.82389">
        <ele>1365</ele>
        <time>2020-06-27T13:49:45Z</time>
      </trkpt>
      <trkpt lat="44.12364" lon="5.82383">
        <ele>1361</ele>
        <time>2020-06-27T13:49:45Z</time>
      </trkpt>
      <trkpt lat="44.12371" lon="5.82377">
        <ele>1359</ele>
        <time>2020-06-27T13:49:45Z</time>
      </trkpt>
      <trkpt lat="44.12405" lon="5.82335">
        <ele>1355</ele>
        <time>2020-06-27T13:49:45Z</time>
      </trkpt>
      <trkpt lat="44.12413" lon="5.82338">
        <ele>1352</ele>
        <time>2020-06-27T13:49:45Z</time>
      </trkpt>
      <trkpt lat="44.12422" lon="5.82336">
        <ele>1349</ele>
        <time>2020-06-27T13:49:45Z</time>
      </trkpt>
      <trkpt lat="44.1243" lon="5.82329">
        <ele>1330</ele>
        <time>2020-06-27T13:49:45Z</time>
      </trkpt>
      <trkpt lat="44.12463" lon="5.82282">
        <ele>1329</ele>
        <time>2020-06-27T13:49:45Z</time>
      </trkpt>
      <trkpt lat="44.12523" lon="5.82215">
        <ele>1326</ele>
        <time>2020-06-27T13:49:45Z</time>
      </trkpt>
      <trkpt lat="44.12537" lon="5.82208">
        <ele>1323</ele>
        <time>2020-06-27T13:49:45Z</time>
      </trkpt>
      <trkpt lat="44.12545" lon="5.82206">
        <ele>1321</ele>
        <time>2020-06-27T13:49:45Z</time>
      </trkpt>
      <trkpt lat="44.1256" lon="5.8219">
        <ele>1319</ele>
        <time>2020-06-27T13:49:45Z</time>
      </trkpt>
      <trkpt lat="44.12572" lon="5.82166">
        <ele>1317</ele>
        <time>2020-06-27T13:49:45Z</time>
      </trkpt>
      <trkpt lat="44.12585" lon="5.82153">
        <ele>1316</ele>
        <time>2020-06-27T13:49:45Z</time>
      </trkpt>
      <trkpt lat="44.12599" lon="5.82146">
        <ele>1314</ele>
        <time>2020-06-27T13:49:45Z</time>
      </trkpt>
      <trkpt lat="44.12607" lon="5.8214">
        <ele>1313</ele>
        <time>2020-06-27T13:49:45Z</time>
      </trkpt>
      <trkpt lat="44.12613" lon="5.8213">
        <ele>1312</ele>
        <time>2020-06-27T13:49:45Z</time>
      </trkpt>
      <trkpt lat="44.12623" lon="5.82104">
        <ele>1310</ele>
        <time>2020-06-27T13:49:45Z</time>
      </trkpt>
      <trkpt lat="44.12634" lon="5.82091">
        <ele>1308</ele>
        <time>2020-06-27T13:49:45Z</time>
      </trkpt>
      <trkpt lat="44.12642" lon="5.82087">
        <ele>1307</ele>
        <time>2020-06-27T13:49:45Z</time>
      </trkpt>
      <trkpt lat="44.12652" lon="5.82086">
        <ele>1306</ele>
        <time>2020-06-27T13:49:45Z</time>
      </trkpt>
      <trkpt lat="44.12675" lon="5.82089">
        <ele>1304</ele>
        <time>2020-06-27T13:49:45Z</time>
      </trkpt>
      <trkpt lat="44.12696" lon="5.82081">
        <ele>1302</ele>
        <time>2020-06-27T13:49:45Z</time>
      </trkpt>
      <trkpt lat="44.12735" lon="5.82049">
        <ele>1299</ele>
        <time>2020-06-27T13:49:45Z</time>
      </trkpt>
      <trkpt lat="44.12846" lon="5.81901">
        <ele>1282</ele>
        <time>2020-06-27T13:49:45Z</time>
      </trkpt>
      <trkpt lat="44.12859" lon="5.81895">
        <ele>1272</ele>
        <time>2020-06-27T13:49:45Z</time>
      </trkpt>
      <trkpt lat="44.12879" lon="5.81878">
        <ele>1264</ele>
        <time>2020-06-27T13:49:45Z</time>
      </trkpt>
      <trkpt lat="44.12904" lon="5.81867">
        <ele>1256</ele>
        <time>2020-06-27T13:49:45Z</time>
      </trkpt>
      <trkpt lat="44.12911" lon="5.8186">
        <ele>1251</ele>
        <time>2020-06-27T13:49:45Z</time>
      </trkpt>
      <trkpt lat="44.1292" lon="5.81857">
        <ele>1247</ele>
        <time>2020-06-27T13:49:45Z</time>
      </trkpt>
      <trkpt lat="44.12929" lon="5.81862">
        <ele>1243</ele>
        <time>2020-06-27T13:49:45Z</time>
      </trkpt>
      <trkpt lat="44.12938" lon="5.8186">
        <ele>1239</ele>
        <time>2020-06-27T13:49:45Z</time>
      </trkpt>
      <trkpt lat="44.12948" lon="5.81851">
        <ele>1236</ele>
        <time>2020-06-27T13:49:45Z</time>
      </trkpt>
      <trkpt lat="44.12993" lon="5.81835">
        <ele>1229</ele>
        <time>2020-06-27T13:49:45Z</time>
      </trkpt>
      <trkpt lat="44.1301" lon="5.81825">
        <ele>1224</ele>
        <time>2020-06-27T13:49:45Z</time>
      </trkpt>
      <trkpt lat="44.13025" lon="5.81805">
        <ele>1218</ele>
        <time>2020-06-27T13:49:45Z</time>
      </trkpt>
      <trkpt lat="44.13035" lon="5.81779">
        <ele>1212</ele>
        <time>2020-06-27T13:49:45Z</time>
      </trkpt>
      <trkpt lat="44.13045" lon="5.81769">
        <ele>1207</ele>
        <time>2020-06-27T13:49:45Z</time>
      </trkpt>
      <trkpt lat="44.13052" lon="5.81756">
        <ele>1203</ele>
        <time>2020-06-27T13:49:45Z</time>
      </trkpt>
    </trkseg>
  </trk>
</gpx>